• In Deutschland
  • Länderverzeichnis
  • Für 7 Tage
  • Wassertemperatur
  • Satellitenkarten
  • Wetterkarte
  • Widgets
  • user-avatar
    Anmelden

    Stündliche Wetter Buchholz in der Nordheide

    Heute, 18 Juni, Montag

    Zeit Temperatur Niederschläge Wind Luftdruck Luftfeuchtigkeit
    00:00 +14°C° 0 mm 1 m/S 757 mmHg 89%
    01:00 +14°C° 0 mm 1 m/S 757 mmHg 90%
    02:00 +14°C° 0,1 mm 1 m/S 757 mmHg 91%
    03:00 +13°C° 0,1 mm 2 m/S 757 mmHg 92%
    04:00 +13°C° 0,1 mm 2 m/S 757 mmHg 93%
    05:00 +14°C° 0 mm 2 m/S 758 mmHg 89%
    06:00 +14°C° 0 mm 3 m/S 758 mmHg 85%
    07:00 +16°C° 0 mm 3 m/S 758 mmHg 80%
    08:00 +17°C° 0 mm 3 m/S 758 mmHg 75%
    09:00 +18°C° 0 mm 4 m/S 758 mmHg 70%
    10:00 +19°C° 0 mm 5 m/S 758 mmHg 65%
    11:00 +19°C° 0 mm 5 m/S 758 mmHg 68%
    12:00 +19°C° 0 mm 5 m/S 758 mmHg 71%
    13:00 +17°C° 0 mm 5 m/S 758 mmHg 74%
    14:00 +19°C° 0,1 mm 4 m/S 758 mmHg 75%
    15:00 +19°C° 0,1 mm 4 m/S 758 mmHg 75%
    16:00 +20°C° 0,1 mm 4 m/S 757 mmHg 75%
    17:00 +19°C° 0,1 mm 4 m/S 757 mmHg 78%
    18:00 +19°C° 0,1 mm 4 m/S 757 mmHg 81%
    19:00 +19°C° 0,1 mm 3 m/S 757 mmHg 83%
    20:00 +18°C° 0,1 mm 3 m/S 757 mmHg 87%
    21:00 +17°C° 0,1 mm 3 m/S 757 mmHg 91%
    22:00 +16°C° 0,1 mm 3 m/S 757 mmHg 94%
    23:00 +16°C° 0 mm 3 m/S 758 mmHg 94%

    Morgen, 19 Juni, Dienstag

    Zeit Temperatur Niederschläge Wind Luftdruck Luftfeuchtigkeit
    00:00 +14°C° 0 mm 3 m/S 758 mmHg 95%
    01:00 +14°C° 0 mm 3 m/S 758 mmHg 95%
    02:00 +13°C° 0 mm 3 m/S 758 mmHg 95%
    03:00 +13°C° 0 mm 3 m/S 758 mmHg 95%
    04:00 +12°C° 0 mm 3 m/S 758 mmHg 95%
    05:00 +13°C° 0 mm 3 m/S 758 mmHg 93%
    06:00 +14°C° 0 mm 4 m/S 758 mmHg 90%
    07:00 +15°C° 0 mm 4 m/S 758 mmHg 87%
    08:00 +18°C° 0 mm 4 m/S 758 mmHg 84%
    09:00 +19°C° 0 mm 4 m/S 759 mmHg 81%
    10:00 +20°C° 0 mm 5 m/S 759 mmHg 78%
    11:00 +19°C° 0,1 mm 5 m/S 759 mmHg 80%
    12:00 +19°C° 0,1 mm 5 m/S 759 mmHg 83%
    13:00 +19°C° 0,1 mm 5 m/S 759 mmHg 86%
    14:00 +20°C° 0,1 mm 5 m/S 760 mmHg 81%
    15:00 +20°C° 0,1 mm 5 m/S 760 mmHg 76%
    16:00 +21°C° 0,1 mm 5 m/S 760 mmHg 70%
    17:00 +20°C° 0 mm 4 m/S 760 mmHg 71%
    18:00 +20°C° 0 mm 4 m/S 760 mmHg 72%
    19:00 +19°C° 0 mm 3 m/S 760 mmHg 73%
    20:00 +17°C° 0 mm 3 m/S 760 mmHg 78%
    21:00 +15°C° 0 mm 2 m/S 761 mmHg 83%
    22:00 +13°C° 0 mm 1 m/S 761 mmHg 89%
    23:00 +13°C° 0 mm 1 m/S 761 mmHg 89%

    übermorgen, 20 Juni, Mittwoch

    Zeit Temperatur Niederschläge Wind Luftdruck Luftfeuchtigkeit
    00:00 +12°C° 0 mm 1 m/S 761 mmHg 89%
    01:00 +11°C° 0 mm 0 m/S 761 mmHg 90%
    02:00 +12°C° 0 mm 1 m/S 761 mmHg 90%
    03:00 +12°C° 0 mm 1 m/S 761 mmHg 91%
    04:00 +12°C° 0 mm 1 m/S 761 mmHg 92%
    05:00 +14°C° 0 mm 2 m/S 761 mmHg 88%
    06:00 +16°C° 0 mm 2 m/S 761 mmHg 85%
    07:00 +18°C° 0 mm 3 m/S 761 mmHg 82%
    08:00 +19°C° 0 mm 3 m/S 760 mmHg 76%
    09:00 +21°C° 0 mm 4 m/S 760 mmHg 71%
    10:00 +23°C° 0 mm 4 m/S 760 mmHg 65%
    11:00 +25°C° 0,1 mm 4 m/S 760 mmHg 63%
    12:00 +26°C° 0,1 mm 4 m/S 759 mmHg 61%
    13:00 +27°C° 0,1 mm 5 m/S 759 mmHg 58%
    14:00 +26°C° 0,2 mm 4 m/S 759 mmHg 62%
    15:00 +26°C° 0,2 mm 4 m/S 758 mmHg 66%
    16:00 +25°C° 0,2 mm 3 m/S 758 mmHg 70%
    17:00 +24°C° 0,2 mm 3 m/S 758 mmHg 74%
    18:00 +24°C° 0,2 mm 3 m/S 757 mmHg 79%
    19:00 +23°C° 0,2 mm 2 m/S 757 mmHg 83%
    20:00 +20°C° 0 mm 2 m/S 757 mmHg 87%
    21:00 +20°C° 0 mm 1 m/S 757 mmHg 91%
    22:00 +18°C° 0 mm 1 m/S 757 mmHg 95%
    23:00 +16°C° 0 mm 1 m/S 757 mmHg 95%

    21 Juni, Donnerstag

    Zeit Temperatur Niederschläge Wind Luftdruck Luftfeuchtigkeit
    00:00 +16°C° 0 mm 1 m/S 756 mmHg 96%
    01:00 +15°C° 0 mm 1 m/S 756 mmHg 96%
    02:00 +15°C° 0 mm 1 m/S 755 mmHg 96%
    03:00 +15°C° 0 mm 2 m/S 755 mmHg 97%
    04:00 +15°C° 0 mm 2 m/S 754 mmHg 97%
    05:00 +16°C° 0 mm 3 m/S 754 mmHg 93%
    06:00 +17°C° 0 mm 4 m/S 753 mmHg 90%
    07:00 +18°C° 0 mm 4 m/S 753 mmHg 86%
    08:00 +18°C° 0,3 mm 4 m/S 753 mmHg 85%
    09:00 +18°C° 0,3 mm 4 m/S 753 mmHg 83%
    10:00 +16°C° 0,3 mm 5 m/S 752 mmHg 82%
    11:00 +15°C° 1 mm 4 m/S 752 mmHg 85%
    12:00 +14°C° 1 mm 4 m/S 752 mmHg 88%
    13:00 +13°C° 1 mm 3 m/S 752 mmHg 91%
    14:00 +13°C° 0,4 mm 4 m/S 752 mmHg 86%
    15:00 +13°C° 0,4 mm 6 m/S 753 mmHg 82%
    16:00 +14°C° 0,4 mm 7 m/S 753 mmHg 77%
    17:00 +14°C° 0,1 mm 7 m/S 753 mmHg 73%
    18:00 +12°C° 0,1 mm 7 m/S 753 mmHg 70%
    19:00 +12°C° 0,1 mm 7 m/S 753 mmHg 66%
    20:00 +11°C° 0 mm 6 m/S 753 mmHg 71%
    21:00 +9°C° 0 mm 5 m/S 754 mmHg 77%
    22:00 +8°C° 0 mm 4 m/S 754 mmHg 82%
    23:00 +8°C° 0 mm 4 m/S 755 mmHg 82%

    22 Juni, Freitag

    Zeit Temperatur Niederschläge Wind Luftdruck Luftfeuchtigkeit
    00:00 +8°C° 0 mm 4 m/S 755 mmHg 83%
    01:00 +8°C° 0 mm 4 m/S 755 mmHg 83%
    02:00 +8°C° 0 mm 5 m/S 755 mmHg 82%
    03:00 +8°C° 0 mm 5 m/S 755 mmHg 82%
    04:00 +7°C° 0 mm 5 m/S 755 mmHg 81%
    05:00 +8°C° 0 mm 6 m/S 755 mmHg 79%
    06:00 +9°C° 0 mm 6 m/S 754 mmHg 77%
    07:00 +10°C° 0 mm 7 m/S 754 mmHg 75%
    08:00 +11°C° 0,2 mm 7 m/S 754 mmHg 73%
    09:00 +12°C° 0,2 mm 7 m/S 755 mmHg 71%
    10:00 +14°C° 0,2 mm 7 m/S 755 mmHg 69%
    11:00 +15°C° 0,4 mm 7 m/S 755 mmHg 67%
    12:00 +15°C° 0,4 mm 7 m/S 755 mmHg 65%
    13:00 +16°C° 0,4 mm 8 m/S 754 mmHg 63%
    14:00 +15°C° 0,5 mm 8 m/S 754 mmHg 69%
    15:00 +15°C° 0,5 mm 8 m/S 754 mmHg 75%
    16:00 +13°C° 0,5 mm 8 m/S 754 mmHg 80%
    17:00 +12°C° 0,3 mm 8 m/S 755 mmHg 81%
    18:00 +12°C° 0,3 mm 7 m/S 755 mmHg 82%
    19:00 +11°C° 0,3 mm 7 m/S 755 mmHg 83%
    20:00 +11°C° 0,1 mm 6 m/S 755 mmHg 82%
    21:00 +10°C° 0,1 mm 6 m/S 755 mmHg 81%
    22:00 +10°C° 0,1 mm 6 m/S 756 mmHg 80%
    23:00 +10°C° 0,1 mm 6 m/S 756 mmHg 80%

    23 Juni, Samstag

    Zeit Temperatur Niederschläge Wind Luftdruck Luftfeuchtigkeit
    00:00 +10°C° 0,1 mm 6 m/S 756 mmHg 80%
    01:00 +10°C° 0,1 mm 5 m/S 756 mmHg 80%
    02:00 +10°C° 0,1 mm 6 m/S 756 mmHg 80%
    03:00 +10°C° 0,1 mm 6 m/S 755 mmHg 80%
    04:00 +10°C° 0,1 mm 6 m/S 755 mmHg 81%
    05:00 +10°C° 0,1 mm 6 m/S 755 mmHg 80%
    06:00 +10°C° 0,1 mm 6 m/S 755 mmHg 78%
    07:00 +10°C° 0,1 mm 6 m/S 755 mmHg 77%
    08:00 +11°C° 0,1 mm 7 m/S 755 mmHg 75%
    09:00 +11°C° 0,1 mm 7 m/S 755 mmHg 73%
    10:00 +12°C° 0,1 mm 7 m/S 756 mmHg 71%
    11:00 +12°C° 0,1 mm 7 m/S 756 mmHg 70%
    12:00 +12°C° 0,1 mm 7 m/S 756 mmHg 69%
    13:00 +12°C° 0,1 mm 7 m/S 756 mmHg 69%
    14:00 +12°C° 0 mm 7 m/S 756 mmHg 69%
    15:00 +12°C° 0 mm 7 m/S 757 mmHg 69%
    16:00 +13°C° 0 mm 6 m/S 757 mmHg 69%
    17:00 +13°C° 0 mm 6 m/S 757 mmHg 70%
    18:00 +13°C° 0 mm 6 m/S 757 mmHg 71%
    19:00 +13°C° 0 mm 5 m/S 757 mmHg 71%
    20:00 +12°C° 0 mm 5 m/S 757 mmHg 73%
    21:00 +11°C° 0 mm 4 m/S 758 mmHg 75%
    22:00 +11°C° 0 mm 4 m/S 758 mmHg 77%
    23:00 +11°C° 0 mm 4 m/S 758 mmHg 78%
    Mehr zeigen